Regional Weather Roundup
Issued by NWS

Home | Current Version | Previous Version | Graphics & Text | Print | Product List | Glossary On
Versions: 1 2 3 4 5 6 7 8 9 10 11 12 13 14 15 16 17 18 19 20 21 22 23 24 25 26 27 28 29 30 31 32 33 34 35 36 37 38 39 40 41 42 43 44 45 46 47 48 49 50
197
ASUS44 KMEG 101900
RWRTN
TENNESSEE HOURLY STATE WEATHER ROUNDUP
NATIONAL WEATHER SERVICE MEMPHIS TN
100 PM CST SUN DEC 10 2017

TNZ002-004-019-021-049-052-054-088>092-102000-
WEST TENNESSEE

CITY           SKY/WX    TMP DP  RH WIND       PRES   REMARKS
MEMPHIS INTL   MOSUNNY   51  25  36 S17G24    30.21F
NWS MEMPHIS      N/A     49 N/A N/A MISG        N/A
JACKSON        SUNNY     51  23  33 SW14G23   30.19F
DYERSBURG      SUNNY     51  24  34 SW13G22   30.16F
$$

TNZ008-025-027-028-033-062-065-066-102000-
NORTH MIDDLE TENNESSEE

CITY           SKY/WX    TMP DP  RH WIND       PRES   REMARKS
NASHVILLE      SUNNY     46  19  34 S10       30.17F
CLARKSVILLE    SUNNY     45  19  35 S16       30.14F
SMYRNA         SUNNY     46  20  35 SW9G17    30.19F
CROSSVILLE     SUNNY     37  15  40 W9G18     30.14F WCI  30
$$

TNZ061-075-076-078-094-096-097-102000-
SOUTH MIDDLE TENNESSEE

CITY           SKY/WX    TMP DP  RH WIND       PRES   REMARKS
$$

TNZ017-018-042-046-047-102000-
NORTHEAST TENNESSEE

CITY           SKY/WX    TMP DP  RH WIND       PRES   REMARKS
TRI CITIES     MOSUNNY   36  20  52 SW9       30.13F WCI  29
$$

TNZ012-013-036-069-073-074-102000-
CENTRAL EAST TENNESSEE

CITY           SKY/WX    TMP DP  RH WIND       PRES   REMARKS
KNOXVILLE      SUNNY     40  23  50 SW14      30.18F WCI  32
OAK RIDGE      SUNNY     41  20  43 VRB5      30.19F
$$

TNZ083-085-099-102000-
SOUTHEAST TENNESSEE

CITY           SKY/WX    TMP DP  RH WIND       PRES   REMARKS
CHATTANOOGA    SUNNY     44  18  35 SW7       30.22F
$$

SKY/WX REPORTED AS FAIR MEANS FEW OR NO CLOUDS BELOW
12 THOUSAND FEET.





USA.gov is the U.S. government's official web portal to all federal, state and local government web resources and services.